This is the latest recevied weather packets stored in our database for station/object NQ9F. If no packets are shown the sender has not sent any weather packets the latest 10 day(s).
| Time | Temp. | Humidity | Pressure | Rain* | Wind** | Luminosity | Snow |
|---|---|---|---|---|---|---|---|
| 1777762922 | 23.33° C | 40% | 1019.6 hPa | 0 mm | - | 97 W/m² | - |
| 1777762617 | 23.33° C | 39% | 1019.3 hPa | 0 mm | - | 115 W/m² | - |
| 1777762315 | 23.33° C | 40% | 1019.3 hPa | 0 mm | - | 142 W/m² | - |
| 1777762010 | 24.44° C | 37% | 1019.1 hPa | 0 mm | - | 481 W/m² | - |
| 1777761707 | 24.44° C | 39% | 1019.1 hPa | 0 mm | - | 495 W/m² | - |
| 1777761404 | 24.44° C | 38% | 1019.5 hPa | 0 mm | - | 530 W/m² | - |
| 1777761103 | 23.89° C | 38% | 1019.5 hPa | 0 mm | - | 561 W/m² | - |
| 1777760800 | 23.33° C | 40% | 1019.4 hPa | 0 mm | - | 306 W/m² | - |
| 1777760496 | 23.33° C | 39% | 1019.4 hPa | 0 mm | - | 538 W/m² | - |
| 1777760192 | 23.89° C | 39% | 1019.4 hPa | 0 mm | - | 616 W/m² | - |
| 1777759884 | 23.89° C | 37% | 1019.5 hPa | 0 mm | - | 628 W/m² | - |
| 1777759580 | 25° C | 38% | 1019.5 hPa | 0 mm | - | 655 W/m² | - |
| 1777759276 | 23.89° C | 37% | 1019.6 hPa | 0 mm | - | 673 W/m² | - |
| 1777758973 | 25° C | 36% | 1019.6 hPa | 0 mm | - | 705 W/m² | - |
| 1777758670 | 24.44° C | 41% | 1019.5 hPa | 0 mm | - | 714 W/m² | - |
| 1777758367 | 24.44° C | 36% | 1019.6 hPa | 0 mm | - | 746 W/m² | - |
| 1777758064 | 24.44° C | 37% | 1019.6 hPa | 0 mm | - | 765 W/m² | - |
| 1777757761 | 25° C | 40% | 1019.9 hPa | 0 mm | - | 796 W/m² | - |
| 1777757459 | 24.44° C | 39% | 1019.7 hPa | 0 mm | - | 827 W/m² | - |
| 1777757158 | 23.33° C | 42% | 1020.1 hPa | 0 mm | - | 868 W/m² | - |
| 1777756855 | 23.89° C | 39% | 1020.1 hPa | 0 mm | - | 194 W/m² | - |
| 1777756550 | 23.89° C | 39% | 1020 hPa | 0 mm | - | 877 W/m² | - |
| 1777756248 | 23.89° C | 38% | 1020.2 hPa | 0 mm | - | 887 W/m² | - |
| 1777755944 | 22.78° C | 42% | 1020.2 hPa | 0 mm | - | 916 W/m² | - |
| 1777755642 | 23.89° C | 43% | 1020.4 hPa | 0 mm | - | 946 W/m² | - |
* Rain latest hour (hover to see other rain measurements)
** Current wind speed in m/s (hover to see current wind gust speed)